Regional Weather Roundup
Issued by NWS

Home | Current Version | Previous Version | Text Only | Print | Product List | Glossary Off
Versions: 1 2 3 4 5 6 7 8 9 10 11 12 13 14 15 16 17 18 19 20 21 22 23 24 25 26 27 28 29 30 31 32 33 34 35 36 37 38 39 40 41 42 43 44 45 46 47 48 49 50

000
ASUS45 KBOI 051510
RWRID

IDAHO REGIONAL WEATHER ROUNDUP
NATIONAL WEATHER SERVICE BOISE ID
800 AM MST FRI FEB 05 2016

NOTE: "FAIR" INDICATES FEW OR NO CLOUDS BELOW 12000 FEET
WITH NO SIGNIFICANT WEATHER AND/OR OBSTRUCTIONS TO VISIBILITY

IDZ012-014-051600-
SOUTHWEST IDAHO


CITY           SKY/WX    TMP DP  RH WIND       PRES   REMARKS
BOISE          FOG       31  31 100 CALM      30.52F VSB 1/4
CALDWELL       CLEAR     27  27 100 SW3       30.55S FOG
MOUNTAIN HOME  PTCLDY    27  27 100 CALM      30.53R
$$

IDZ016-017-051600-
SOUTHCENTRAL IDAHO


CITY           SKY/WX    TMP DP  RH WIND       PRES   REMARKS
BURLEY         CLOUDY    32  28  85 CALM      30.50R
JEROME         CLOUDY    27  23  85 NE10      30.52R WCI  17
TWIN FALLS     CLOUDY    32  26  78 SW7       30.51R WCI  26
$$

IDZ019>023-051600-
SOUTHEAST IDAHO


CITY           SKY/WX    TMP DP  RH WIND       PRES   REMARKS
IDAHO FALLS    CLOUDY    16  13  88 N12       30.54R FOG     WCI   3
POCATELLO      CLOUDY    19  17  92 NE7       30.54R WCI  10
REXBURG        FOG       17  15  92 CALM      30.52R VSB 1
$$

IDZ006-010-011-018-031-032-051600-
CENTRAL IDAHO MOUNTAINS


CITY           SKY/WX    TMP DP  RH WIND       PRES   REMARKS
MCCALL         CLOUDY    24  23  96 N3        30.45F
HAILEY         PTCLDY    18  12  79 W12G18    30.47R WCI   5
STANLEY          N/A     13   9  84 SE5       30.47R WCI   5
SALMON         CLOUDY    12  10  92 CALM      30.52S
CHALLIS        PTCLDY    12   9  87 CALM      30.49R
$$

IDZ002-004-006-007-026-051600-
NORTHERN IDAHO


CITY           SKY/WX    TMP DP  RH WIND       PRES   REMARKS
LEWISTON       MOCLDY    37  33  85 SE6       30.44F WCI  32
LOWELL           N/A     33  32  96 CALM      30.54R
COEUR D`ALENE  CLOUDY    36  34  93 S9        30.36F WCI  29
MULLAN PASS    LGT SNOW  28  24  85 VRB6      30.31R VSB 1   WCI  22
$$



USA.gov is the U.S. government's official web portal to all federal, state and local government web resources and services.